SATELIOT_4

Last updated on Mon Sep 16 2024 00:02:03 GMT+0000 (Coordinated Universal Time)

1 60537U 24149BX 24259.21193342 .00006606 00000+0 65958-3 0 9991 2 60537 97.7386 334.1634 0002583 43.9910 316.1514 14.91833429 4370
UTC large
Height (km)
Speed (km/s)
/
Latitude / Longitude
Inclination (degrees)
Orbital Period (minutes)
Azimuth
Elevation
Range (km)
Doppler Factor

Next 0 passes for location: London (51.5072 / 0.1276)

Sorry there are no passes over London.